Regional Weather Roundup
Issued by NWS

Home | Current Version | Previous Version | Graphics & Text | Print | Product List | Glossary On
Versions: 1 2 3 4 5 6 7 8 9 10 11 12 13 14 15 16 17 18 19 20 21 22 23 24 25 26 27 28 29 30 31 32 33 34 35 36 37 38 39 40 41 42 43 44 45 46 47 48 49 50
000
ASUS43 KBIS 250310
RWRND

NORTH DAKOTA REGIONAL WEATHER ROUNDUP
NATIONAL WEATHER SERVICE BISMARCK ND
1000 PM CDT FRI OCT 24 2014

NOTE: "FAIR" INDICATES FEW OR NO CLOUDS BELOW 12,000 FEET WITH NO
SIGNIFICANT WEATHER AND/OR OBSTRUCTIONS TO VISIBILITY.


NDZ001>003-009>011-017-250400-
NORTHWEST NORTH DAKOTA

CITY           SKY/WX    TMP DP  RH WIND       PRES   REMARKS
WILLISTON      CLEAR     44  27  51 W12       30.03R
MINOT          CLEAR     50  29  44 W13       29.97R
MINOT AFB      CLEAR     44  31  60 W10       29.97R
$$

NDZ018>021-031>035-040>046-250400-
SOUTHWEST NORTH DAKOTA

CITY           SKY/WX    TMP DP  RH WIND       PRES   REMARKS
BISMARCK       PTCLDY    49  33  54 W7        30.03R
DICKINSON      MOCLDY    46  31  55 W7        30.05R
GARRISON         N/A     51  29  42 W13       29.99S
HETTINGER ARPT CLOUDY    47  35  63 W7        30.09R
$$

NDZ004>008-012>016-024-026-027-054-250400-
NORTHEAST NORTH DAKOTA

CITY           SKY/WX    TMP DP  RH WIND       PRES   REMARKS
GRAND FORKS    PTCLDY    52  35  52 W8        29.87R
GRND FRKS AFB  CLEAR     54  35  48 NW10      29.88R
DEVILS LAKE    CLEAR     50  34  53 W13       29.91R
$$

NDZ022-023-025-028>030-036>039-047>053-250400-
SOUTHEAST NORTH DAKOTA

CITY           SKY/WX    TMP DP  RH WIND       PRES   REMARKS
FARGO          PTCLDY    53  33  46 W8        29.90R
JAMESTOWN      CLEAR     51  34  52 NW13      29.95R
$$




USA.gov is the U.S. government's official web portal to all federal, state and local government web resources and services.